Regional Weather Roundup
Issued by NWS

Home | Current Version | Previous Version | Text Only | Print | Product List | Glossary Off
Versions: 1 2 3 4 5 6 7 8 9 10 11 12 13 14 15 16 17 18 19 20 21 22 23 24 25 26 27 28 29 30 31 32 33 34 35 36 37 38 39 40 41 42 43 44 45 46 47 48 49 50

000
ASUS43 KDMX 071301
RWRIA

WEATHER ROUNDUP FOR IOWA
NATIONAL WEATHER SERVICE DES MOINES IA
700 AM CST WED DEC 07 2016

NOTE: "FAIR" INDICATES FEW OR NO CLOUDS BELOW 12,000 FEET WITH NO
SIGNIFICANT WEATHER AND/OR OBSTRUCTIONS TO VISIBILITY.

* - THESE STATIONS ARE NOT NWS STATIONS...THUS NOT UNDER NWS
QUALITY CONTROL.  THEY ALSO DO NOT REPORT WEATHER SUCH
AS PRECIPITATION OR FOG.

IAZ001>003-012>014-020>022-031>034-043>046-071400-
   NORTHWEST IOWA

CITY           SKY/WX    TMP DP  RH WIND       PRES   REMARKS
CARROLL *      CLEAR     14   9  79 W16G24    30.17R WCI  -2
CHEROKEE *     CLEAR     11   5  76 NW15      30.18F WCI  -5
DENISON *      PTCLDY    14   9  79 NW12      30.18S WCI   0
LE MARS *      PTCLDY    12   7  79 NW20G26   30.23R WCI  -6
ORANGE CITY *  CLEAR     10   5  79 NW21G26   30.18R WCI  -9
SHELDON *      CLEAR      9   5  85 W22       30.15R WCI -11
SIOUX CITY     CLOUDY    15   6  67 NW20G26   30.23R WCI  -2
SPENCER        CLEAR     10   4  76 W26G33    30.15R WCI -11
STORM LAKE *   CLEAR     10   5  79 W21G30    30.15S WCI  -9
$$

IAZ055>058-069>071-079>083-090>094-071400-
   SOUTHWEST IOWA

CITY           SKY/WX    TMP DP  RH WIND       PRES   REMARKS
ATLANTIC *     PTCLDY    16   9  73 NW14G21   30.21R WCI   1
AUDUBON *      PTCLDY    16   9  73 NW9G17    30.18S WCI   4
CLARINDA *     CLOUDY    19  10  68 NW12      30.25R WCI   7
COUNCIL BLFS * PTCLDY    16   9  73 NW18G26   30.22R WCI  -1
CRESTON *      CLOUDY    18   9  68 NW16      30.18R WCI   3
HARLAN  *      PTCLDY    16   9  73 NW15G21   30.24S WCI   1
LAMONI         CLOUDY    21  12  68 NW10      30.18R WCI  10
RED OAK *      CLOUDY    18  10  73 NW10G16   30.23R WCI   6
SHENANDOAH *   CLOUDY    19  12  73 N6        30.25R WCI  11
$$

IAZ047>049-059>061-072>074-084-071400-
   CENTRAL IOWA

CITY           SKY/WX    TMP DP  RH WIND       PRES   REMARKS
AMES           PTCLDY    15  10  80 NW14G23   30.17R WCI   0
ANKENY *       PTCLDY    18  10  73 W14G23    30.19R WCI   4
BOONE *        PTCLDY    14   7  73 W14G23    30.15R WCI  -1
CHARITON *       N/A     19  12  73 W7        30.17R WCI  10
DES MOINES     CLOUDY    18   9  68 NW15      30.18R WCI   4
GRINNELL*      MOCLDY    18  12  79 W15G22    30.15R WCI   3
KNOXVILLE *    MOCLDY    19  10  68 W13       30.16R WCI   7
MARSHALLTOWN   CLOUDY    16  11  80 W12G21    30.14R WCI   3
NEWTON *       CLOUDY    18  12  79 W12G20    30.15S WCI   5
PELLA *        PTCLDY    19  13  76 NW8       30.18R WCI   9
PERRY *          N/A     16  12  84 W12       30.18S WCI   3
$$

IAZ004>006-015-016-023>025-035-036-071400-
   NORTH CENTRAL IOWA

CITY           SKY/WX    TMP DP  RH WIND       PRES   REMARKS
ALGONA *       MOCLDY    12   7  79 W14G22    30.12R WCI  -3
CLARION *      CLOUDY    14   9  79 W23G29    30.13R WCI  -5
ESTHERVILLE    CLEAR      9   4  80 W17       30.11R WCI  -9
FORT DODGE *   PTCLDY    12   5  73 W14       30.16R WCI  -3
MASON CITY     CLEAR     12   7  80 W18       30.11R WCI  -6
WEBSTER CITY * CLOUDY    14   9  79 W15G22    30.13R WCI  -1
IOWA FALLS *     N/A     16  11  82 W20       30.13S WCI  -1
$$

IAZ007>011-017>019-026>030-037>042-050>054-066-071400-
   NORTHEAST IOWA

CITY           SKY/WX    TMP DP  RH WIND       PRES   REMARKS
CEDAR RAPIDS   PTCLDY    17  14  88 W12       30.12S WCI   4
CHARLES CITY * CLOUDY    14   9  79 W16       30.09S WCI  -2
CLINTON *      CLOUDY    21  16  81 W16G25    30.12R WCI   7
DECORAH *      CLOUDY    14   9  79 W10G18    30.05R WCI   1
DUBUQUE        CLOUDY    17  12  80 W12       30.07F WCI   4
MONTICELLO *   CLOUDY    18  12  79 W12       30.11R WCI   5
OELWEIN *      CLOUDY    16  10  79 W13G20    30.10R WCI   2
WATERLOO       PTCLDY    16   9  74 W18       30.12R WCI   0
$$

IAZ064-065-067-068-078-071400-
   EAST CENTRAL IOWA

CITY           SKY/WX    TMP DP  RH WIND       PRES   REMARKS
DAVENPORT      CLOUDY    22  15  75 W18G25    30.13R WCI   7
IOWA CITY      PTCLDY    21  14  74 W10       30.16R WCI  10
MUSCATINE *    CLOUDY    23  16  74 NW14      30.16S WCI  11
QUAD CITIES    CLOUDY    24  15  68 W10       30.13R WCI  14
$$

IAZ062-063-075>077-085>089-095>099-071400-
   SOUTHEAST IOWA

CITY           SKY/WX    TMP DP  RH WIND       PRES   REMARKS
BURLINGTON     PTCLDY    25  16  68 W9        30.15R WCI  15
FAIRFIELD *    PTCLDY    23  14  68 W10       30.15S WCI  12
FORT MADISON * PTCLDY    25  16  68 W9        30.16S WCI  15
KEOKUK *       PTCLDY    27  16  63 W7        30.16S WCI  19
OSKALOOSA *      N/A     20  15  79 NW8       30.17R WCI  11
CENTERVILLE *    N/A     21  14  73 W8        30.18S WCI  12
OTTUMWA        PTCLDY    21  12  68 NW10      30.15F WCI  10
WASHINGTON *   PTCLDY    21  16  79 NW13      30.16S WCI   9
$$

ABBREVIATIONS USED IN REMARKS
   TC - TEMPERATURES IN CELSIUS
  WCI - WIND CHILL INDEX
   HX - HEAT INDEX
  VSB - VISIBILITY
$$





USA.gov is the U.S. government's official web portal to all federal, state and local government web resources and services.